Location: Gleizolles
(44.4833°N, 6.7667°E)
Time: 15:54:46
(UTC+00:00)

Tiros 1 - Pass Details

Date: 26 June 2024
Orbit: 624 x 656 km, 48.4° (Epoch: 13 July)

Event Time Altitude Azimuth Distance (km) Brightness Sun altitude
Rises 22:57:52 0° 253° (WSW) 2,896 10.4 -21.6°
Reaches altitude 10° 23:00:11 10° 255° (WSW) 1,991 9.6 -21.7°
Maximum altitude 23:04:46 75° 341° (NNW) 650 7.2 -21.8°
Drops below altitude 10° 23:09:22 10° 67° (ENE) 2,005 9.8 -21.9°
Sets 23:11:43 0° 70° (ENE) 2,918 10.7 -22.0°
